TimeMDT,TemperatureF,Dew PointF,Humidity,Sea Level PressureIn,VisibilityMPH,Wind Direction,Wind SpeedMPH,Gust SpeedMPH,PrecipitationIn,Events,Conditions,WindDirDegrees,DateUTC
12:15 AM,41.4,17.8,39,30.10,10.0,Calm,Calm,-,N/A,,Clear,0,2013-04-29 06:15:00
12:35 AM,40.5,17.8,40,30.10,10.0,Calm,Calm,-,N/A,,Clear,0,2013-04-29 06:35:00
12:55 AM,41.2,17.4,38,30.10,10.0,ENE,3.5,-,N/A,,Clear,60,2013-04-29 06:55:00
1:15 AM,39.6,20.5,46,30.11,10.0,Calm,Calm,-,N/A,,Clear,0,2013-04-29 07:15:00
1:35 AM,37.0,20.7,52,30.10,10.0,Calm,Calm,-,N/A,,Clear,0,2013-04-29 07:35:00
1:55 AM,37.2,19.6,49,30.10,10.0,Calm,Calm,-,N/A,,Clear,0,2013-04-29 07:55:00
2:15 AM,39.2,19.0,44,30.09,10.0,Calm,Calm,-,N/A,,Clear,0,2013-04-29 08:15:00
2:35 AM,39.7,18.3,42,30.09,10.0,Calm,Calm,-,N/A,,Clear,0,2013-04-29 08:35:00
2:55 AM,36.3,19.4,50,30.09,10.0,NE,3.5,-,N/A,,Clear,50,2013-04-29 08:55:00
3:15 AM,36.3,19.6,51,30.09,10.0,Calm,Calm,-,N/A,,Clear,0,2013-04-29 09:15:00
3:35 AM,36.5,19.2,50,30.09,10.0,Calm,Calm,-,N/A,,Clear,0,2013-04-29 09:35:00
3:55 AM,37.2,19.2,48,30.09,10.0,Calm,Calm,-,N/A,,Clear,0,2013-04-29 09:55:00
4:15 AM,36.7,19.9,51,30.09,10.0,Calm,Calm,-,N/A,,Clear,0,2013-04-29 10:15:00
4:35 AM,34.9,21.6,58,30.09,10.0,Calm,Calm,-,N/A,,Clear,0,2013-04-29 10:35:00
4:55 AM,35.2,19.8,53,30.09,10.0,Calm,Calm,-,N/A,,Clear,0,2013-04-29 10:55:00
5:15 AM,35.1,19.8,54,30.09,10.0,WNW,3.5,-,N/A,,Clear,300,2013-04-29 11:15:00
5:35 AM,35.4,19.4,52,30.08,10.0,Calm,Calm,-,N/A,,Clear,0,2013-04-29 11:35:00
5:55 AM,35.2,19.6,53,30.09,10.0,Calm,Calm,-,N/A,,Clear,0,2013-04-29 11:55:00
6:15 AM,34.0,19.8,56,30.08,10.0,Calm,Calm,-,N/A,,Clear,0,2013-04-29 12:15:00
6:35 AM,32.9,20.1,59,30.09,10.0,Calm,Calm,-,N/A,,Clear,0,2013-04-29 12:35:00
6:55 AM,37.2,20.8,52,30.09,10.0,Calm,Calm,-,N/A,,Clear,0,2013-04-29 12:55:00
7:15 AM,38.5,21.6,51,30.09,10.0,Calm,Calm,-,N/A,,Clear,0,2013-04-29 13:15:00
7:35 AM,44.1,22.1,42,30.09,10.0,Calm,Calm,-,N/A,,Clear,0,2013-04-29 13:35:00
7:55 AM,47.1,20.1,34,30.09,10.0,West,3.5,-,N/A,,Clear,260,2013-04-29 13:55:00
8:15 AM,50.0,17.2,27,30.09,10.0,Calm,Calm,-,N/A,,Clear,0,2013-04-29 14:15:00
8:35 AM,52.5,18.7,26,30.08,10.0,Calm,Calm,-,N/A,,Clear,0,2013-04-29 14:35:00
8:55 AM,53.4,21.0,28,30.08,10.0,Calm,Calm,-,N/A,,Clear,0,2013-04-29 14:55:00
9:15 AM,54.7,20.8,27,30.07,10.0,Calm,Calm,-,N/A,,Clear,0,2013-04-29 15:15:00
9:35 AM,56.7,21.4,25,30.07,10.0,Calm,Calm,-,N/A,,Clear,0,2013-04-29 15:35:00
9:55 AM,59.0,19.8,22,30.07,10.0,South,4.6,-,N/A,,Clear,190,2013-04-29 15:55:00
10:15 AM,60.1,16.9,19,30.07,10.0,South,4.6,-,N/A,,Clear,170,2013-04-29 16:15:00
10:35 AM,61.0,18.1,19,30.07,10.0,Calm,Calm,-,N/A,,Clear,0,2013-04-29 16:35:00
10:55 AM,63.7,17.2,17,30.06,10.0,SSW,6.9,-,N/A,,Clear,200,2013-04-29 16:55:00
11:15 AM,64.9,14.9,14,30.05,10.0,SW,9.2,16.1,N/A,,Clear,230,2013-04-29 17:15:00
11:35 AM,67.3,14.4,13,30.04,10.0,WSW,12.7,23.0,N/A,,Scattered Clouds,240,2013-04-29 17:35:00
11:55 AM,67.5,13.1,12,30.04,10.0,SW,15.0,24.2,N/A,,Scattered Clouds,220,2013-04-29 17:55:00
12:15 PM,68.2,12.9,12,30.03,10.0,SSW,9.2,24.2,N/A,,Scattered Clouds,210,2013-04-29 18:15:00
12:35 PM,68.4,12.7,12,30.02,10.0,SW,19.6,24.2,N/A,,Scattered Clouds,220,2013-04-29 18:35:00
12:55 PM,68.7,13.6,12,30.01,10.0,SSW,17.3,24.2,N/A,,Scattered Clouds,210,2013-04-29 18:55:00
1:15 PM,70.0,14.0,12,30.01,10.0,SW,10.4,23.0,N/A,,Scattered Clouds,220,2013-04-29 19:15:00
1:35 PM,69.4,13.6,12,29.99,10.0,SW,20.7,26.5,N/A,,Mostly Cloudy,220,2013-04-29 19:35:00
1:55 PM,71.4,14.2,11,29.99,10.0,West,20.7,26.5,N/A,,Scattered Clouds,260,2013-04-29 19:55:00
2:15 PM,69.8,12.6,11,29.99,10.0,SW,13.8,31.1,N/A,,Mostly Cloudy,230,2013-04-29 20:15:00
2:35 PM,71.4,12.9,11,29.97,10.0,SW,18.4,23.0,N/A,,Scattered Clouds,220,2013-04-29 20:35:00
2:55 PM,71.8,12.4,10,29.95,10.0,SSW,21.9,29.9,N/A,,Scattered Clouds,210,2013-04-29 20:55:00
3:15 PM,71.8,11.8,10,29.95,10.0,SW,23.0,31.1,N/A,,Scattered Clouds,220,2013-04-29 21:15:00
3:35 PM,70.9,12.9,11,29.95,10.0,SW,18.4,23.0,N/A,,Mostly Cloudy,230,2013-04-29 21:35:00
3:55 PM,73.4,12.9,10,29.94,10.0,SW,11.5,24.2,N/A,,Mostly Cloudy,230,2013-04-29 21:55:00
4:15 PM,72.9,11.7,10,29.94,10.0,West,17.3,25.3,N/A,,Scattered Clouds,260,2013-04-29 22:15:00
4:35 PM,72.5,12.6,10,29.94,10.0,WSW,15.0,27.6,N/A,,Scattered Clouds,240,2013-04-29 22:35:00
4:55 PM,71.1,11.5,10,29.93,10.0,WSW,9.2,19.6,N/A,,Clear,240,2013-04-29 22:55:00
5:15 PM,71.4,10.6,10,29.93,10.0,West,18.4,38.0,N/A,,Scattered Clouds,260,2013-04-29 23:15:00
5:35 PM,70.9,14.5,12,29.94,10.0,West,27.6,32.2,N/A,,Clear,260,2013-04-29 23:35:00
5:55 PM,70.7,11.3,10,29.93,10.0,WSW,15.0,24.2,N/A,,Clear,240,2013-04-29 23:55:00
6:15 PM,70.2,12.9,11,29.93,10.0,WSW,11.5,21.9,N/A,,Clear,240,2013-04-30 00:15:00
6:35 PM,67.8,13.6,12,29.94,10.0,WSW,17.3,26.5,N/A,,Clear,250,2013-04-30 00:35:00
6:55 PM,68.4,13.8,12,29.93,10.0,WSW,6.9,21.9,N/A,,Clear,240,2013-04-30 00:55:00
7:15 PM,68.2,13.1,12,29.93,10.0,SW,4.6,-,N/A,,Clear,230,2013-04-30 01:15:00
7:35 PM,65.5,16.3,15,29.93,10.0,West,6.9,-,N/A,,Clear,270,2013-04-30 01:35:00
7:55 PM,64.2,15.6,15,29.93,10.0,WSW,6.9,-,N/A,,Clear,250,2013-04-30 01:55:00
8:15 PM,63.5,16.0,16,29.94,10.0,SW,5.8,-,N/A,,Clear,230,2013-04-30 02:15:00
8:35 PM,58.1,18.5,21,29.94,10.0,Calm,Calm,-,N/A,,Clear,0,2013-04-30 02:35:00
8:55 PM,54.9,19.0,25,29.94,10.0,Calm,Calm,-,N/A,,Clear,0,2013-04-30 02:55:00
9:35 PM,54.7,19.0,25,29.95,10.0,Calm,Calm,-,N/A,,Clear,0,2013-04-30 03:35:00
9:55 PM,47.1,23.4,39,29.95,10.0,Calm,Calm,-,N/A,,Clear,0,2013-04-30 03:55:00
10:15 PM,52.9,18.3,26,29.95,10.0,Calm,Calm,-,N/A,,Clear,0,2013-04-30 04:15:00
10:35 PM,46.0,22.6,40,29.95,10.0,Calm,Calm,-,N/A,,Clear,0,2013-04-30 04:35:00
10:55 PM,47.3,20.7,35,29.95,10.0,Calm,Calm,-,N/A,,Clear,0,2013-04-30 04:55:00
11:15 PM,48.7,20.8,33,29.95,10.0,Calm,Calm,-,N/A,,Clear,0,2013-04-30 05:15:00
11:35 PM,45.9,20.8,37,29.95,10.0,Calm,Calm,-,N/A,,Clear,0,2013-04-30 05:35:00
11:55 PM,45.0,22.3,41,29.95,10.0,Calm,Calm,-,N/A,,Clear,0,2013-04-30 05:55:00